sat.trackr.live / text

‹ back to catalog

TOMORROW-S7

NORAD 63631 · 2025-081B

PAYLOAD ACTIVE UNKNOWN

§ Identity

Operator
Country
US
Launch date
2025-04-22
Launch site
AFETR
Launch vehicle
Mass (kg)
RCS (m²)

External: N2YO · Heavens-Above · Gunter

§ Orbital elements

Epoch: 2026-09-21T21:44:31.797312Z

Period
96.01 min
Inclination
45.3927°
Eccentricity
0.0001546
Mean motion
14.99875577 rev/d
Perigee alt
566.2 km
Apogee alt
568.4 km
Semi-major
6,945.4 km
B*
8.8499e-5
RAAN
193.5082°
Arg perigee
45.4964°
Mean anomaly
314.6041°
Rev number
7,769

§ Raw data

TOMORROW-S71 63631U 25081B   26264.90592358  .00000884  00000+0  88499-4 0  99972 63631  45.3927 193.5082 0001546  45.4964 314.6041 14.99875577 77697

JSON: /api/v1/satellites/63631 · /tle

For live sub-satellite position, see the globe view (requires WebGL).

§ Visibility from observer

Set your observer location to see the next 7 days of passes ≥ 10°. The values pass through the URL so the page stays shareable.

No JS? Fill the form by hand. The geolocation button needs JavaScript.